San Angelo, TX

3:51 AM CDT on October 24, 2017 (GMT -0500)
San Angelo Regional-Mathis

Weather History for KSJT - December, 2012

Change the Weather History Date:

Sunday, December 23, 2012

  Actual Average Record
Temperature  
Mean Temperature 60 °F 46 °F  
Max Temperature 76 °F 59 °F 83 °F (1955)
Min Temperature 44 °F 33 °F -4 °F (1989)
Degree Days  
Heating Degree Days 5 19  
Month to date heating degree days 228 411  
Since 1 July heating degree days 533 811  
Cooling Degree Days 0 0  
Month to date cooling degree days 17 0  
Year to date cooling degree days 3243 2502  
Growing Degree Days 10 (Base 50)    
Moisture  
Dew Point 36 °F    
Average Humidity 47    
Maximum Humidity 72    
Minimum Humidity 21    
Precipitation  
Precipitation 0.00 in 0.03 in 0.95 in (1932)
Month to date precipitation 0.01 0.61  
Year to date precipitation 21.79 21.01  
Snow  
Snow 0.00 in 0.00 in T in (1953)
Month to date snowfall 0.0 0.2  
Since 1 July snowfall T 0.5  
Snow Depth 0.00 in    
Sea Level Pressure  
Sea Level Pressure 29.95 in    
Wind  
Wind Speed 10 mph (WSW)    
Max Wind Speed 24 mph    
Max Gust Speed 30 mph    
Visibility 10 miles    
Events      
T = Trace of Precipitation, MM = Missing Value Source: NWS Daily Summary

Daily Weather History Graph

Daily Weather History Graph

Search for Another Location

Airport or City:

Trip Planner

Search our weather history database for the weather conditions in past years. The results will help you decide how hot, cold, wet, or windy it might be!

Date:

Astronomy

Dec. 23, 2012 Rise Set
Actual Time 7:38 AM CST 5:44 PM CST
Civil Twilight 7:11 AM CST 6:11 PM CST
Nautical Twilight 6:40 AM CST 6:41 PM CST
Astronomical Twilight 6:11 AM CST 7:11 PM CST
Moon 2:29 PM CST (12/23) 3:30 AM CST (12/23)
Length of Visible Light 11h 00m
Length of Day
10h 06m
Waxing Gibbous, 82% of the Moon is Illuminated
Dec 23
Waxing Gibbous
Dec 28
Full
Jan 4
Last Quarter
Jan 11
New
Jan 18
First Quarter

Hourly Weather History & Observations

Time (CST) Temp. Windchill Dew Point Humidity Pressure Visibility Wind Dir Wind Speed Gust Speed Precip Events Conditions
12:51 AM 55.9 °F - 46.0 °F 69% 30.00 in 10.0 mi SSW 13.8 mph - N/A   Clear
1:51 AM 55.9 °F - 45.0 °F 67% 29.99 in 10.0 mi SSW 16.1 mph - N/A   Clear
2:51 AM 54.0 °F - 42.1 °F 64% 29.99 in 10.0 mi West 6.9 mph - N/A   Clear
3:51 AM 53.1 °F - 42.1 °F 66% 29.99 in 10.0 mi SW 12.7 mph - N/A   Clear
4:51 AM 51.1 °F - 39.0 °F 63% 29.97 in 10.0 mi WSW 10.4 mph - N/A   Clear
5:51 AM 50.0 °F - 37.9 °F 63% 29.98 in 10.0 mi WSW 9.2 mph - N/A   Clear
6:51 AM 48.0 °F - 37.9 °F 68% 30.00 in 10.0 mi SW 10.4 mph - N/A   Clear
7:51 AM 44.1 °F 41.5 °F 36.0 °F 73% 30.01 in 10.0 mi SW 4.6 mph - N/A   Clear
9:51 AM 59.0 °F - 37.9 °F 46% 30.01 in 10.0 mi WSW 9.2 mph - N/A   Clear
10:51 AM 63.0 °F - 37.9 °F 40% 30.01 in 10.0 mi SW 6.9 mph - N/A   Clear
1:51 PM 72.0 °F - 30.9 °F 22% 29.89 in 10.0 mi WSW 12.7 mph - N/A   Clear
2:51 PM 75.9 °F - 33.1 °F 21% 29.86 in 10.0 mi West 15.0 mph 20.7 mph N/A   Clear
3:51 PM 73.9 °F - 34.0 °F 23% 29.87 in 10.0 mi West 19.6 mph 26.5 mph N/A   Clear
4:51 PM 72.0 °F - 34.0 °F 25% 29.88 in 10.0 mi West 17.3 mph - N/A   Clear
5:51 PM 66.9 °F - 33.1 °F 28% 29.90 in 10.0 mi West 8.1 mph - N/A   Clear
6:51 PM 64.0 °F - 32.0 °F 30% 29.92 in 10.0 mi West 8.1 mph - N/A   Clear
7:51 PM 59.0 °F - 32.0 °F 36% 29.94 in 10.0 mi WSW 6.9 mph - N/A   Clear
8:51 PM 57.9 °F - 32.0 °F 37% 29.93 in 10.0 mi SW 10.4 mph - N/A   Clear
9:51 PM 54.0 °F - 33.1 °F 45% 29.95 in 10.0 mi West 5.8 mph - N/A   Clear
10:51 PM 48.9 °F - 30.9 °F 50% 29.96 in 10.0 mi SW 8.1 mph - N/A   Clear
11:51 PM 48.0 °F - 32.0 °F 54% 29.96 in 10.0 mi Calm Calm - N/A   Clear